Simultaneous Nadir Overpasses (SNOs) Predictions

Prediction of SNOs between METOP-B and TERRA Satellite Orbit:

Table of predicted SNOs for the next 14.0 days since TLE Epoch: 3/17/2018
Index Date (METOP-B) Time (METOP-B) Lat,Lon (METOP-B) SZA (METOP-B ) Date (TERRA) Time (TERRA) Lat,Lon (TERRA) SZA (TERRA ) Distance(km) Time Diff (sec)
1 03/18/2018 01:50:02 81.33,-159.71 84.95 03/18/2018 01:50:31 81.32,-159.78 84.95 1.55 29
2 03/18/2018 02:40:41 -81.34, 8.15 95.01 03/18/2018 02:39:57 -81.34, 8.21 95.02 1.02 44
3 03/20/2018 21:24:23 81.33, -93.51 83.84 03/20/2018 21:24:48 81.33, -93.31 83.87 3.29 25
4 03/20/2018 22:15:01 -81.34, 74.77 96.07 03/20/2018 22:14:14 -81.35, 74.70 96.09 1.30 47
5 03/23/2018 16:58:44 81.33, -26.93 82.78 03/23/2018 16:59:07 81.33, -26.74 82.81 3.26 23
6 03/23/2018 17:49:23 -81.34, 140.97 97.17 03/23/2018 17:48:34 -81.34, 140.91 97.20 1.11 49
7 03/26/2018 12:33:05 81.33, 39.61 81.72 03/26/2018 12:33:28 81.33, 39.55 81.72 1.27 23
8 03/26/2018 13:23:45 -81.34,-152.84 98.28 03/26/2018 13:22:55 -81.33,-152.78 98.30 1.31 50
9 03/29/2018 08:07:26 81.33, 105.74 80.61 03/29/2018 08:07:49 81.33, 105.94 80.64 3.34 23




NCC Satellite Simultaneous Nadir Overpasses (SNOs) Prediction Service
